Time,TemperatureF,DewpointF,PressureIn,WindDirection,WindDirectionDegrees,WindSpeedMPH,WindSpeedGustMPH,Humidity,HourlyPrecipIn,Conditions,Clouds,dailyrainin,SoftwareType,DateUTC
2013-04-23 00:01:00,54.5,52.3,29.94,North,357,0.0,3.6,92,0.00,,,0.00,WUHU216WMR968SP,2013-04-23 07:01:00,
2013-04-23 00:06:00,54.3,51.6,29.94,North,8,0.0,3.1,91,0.00,,,0.00,WUHU216WMR968SP,2013-04-23 07:06:00,
2013-04-23 00:11:00,54.3,51.6,29.94,NE,44,0.0,0.0,91,0.00,,,0.00,WUHU216WMR968SP,2013-04-23 07:11:00,
2013-04-23 00:16:00,54.1,51.4,29.94,NE,56,0.0,0.0,91,0.00,,,0.00,WUHU216WMR968SP,2013-04-23 07:16:00,
2013-04-23 00:21:00,54.3,51.6,29.94,North,9,0.0,0.0,91,0.00,,,0.00,WUHU216WMR968SP,2013-04-23 07:21:00,
2013-04-23 00:26:00,54.5,51.8,29.94,ENE,69,0.0,0.0,91,0.00,,,0.00,WUHU216WMR968SP,2013-04-23 07:26:00,
2013-04-23 00:31:00,54.5,51.3,29.94,ENE,61,0.0,0.0,89,0.00,,,0.00,WUHU216WMR968SP,2013-04-23 07:31:00,
2013-04-23 00:36:00,54.9,51.7,29.94,NE,34,0.0,0.0,89,0.00,,,0.00,WUHU216WMR968SP,2013-04-23 07:36:00,
2013-04-23 00:41:00,55.0,51.8,29.94,ENE,65,0.0,0.0,89,0.00,,,0.00,WUHU216WMR968SP,2013-04-23 07:41:00,
2013-04-23 00:47:00,55.2,52.0,29.94,NE,50,2.2,5.8,89,0.00,,,0.00,WUHU216WMR968SP,2013-04-23 07:47:00,
2013-04-23 00:52:00,55.4,52.2,29.94,NE,41,0.0,5.8,89,0.00,,,0.00,WUHU216WMR968SP,2013-04-23 07:52:00,
2013-04-23 00:57:00,55.4,52.2,29.94,North,0,0.0,4.0,89,0.00,,,0.00,WUHU216WMR968SP,2013-04-23 07:57:00,
2013-04-23 01:02:00,55.4,52.2,29.94,NNE,14,3.1,5.4,89,0.00,,,0.00,WUHU216WMR968SP,2013-04-23 08:02:00,
2013-04-23 01:07:00,55.4,52.2,29.94,ENE,64,2.2,5.4,89,0.00,,,0.00,WUHU216WMR968SP,2013-04-23 08:07:00,
2013-04-23 01:12:00,55.6,52.4,29.94,East,87,0.0,4.0,89,0.00,,,0.00,WUHU216WMR968SP,2013-04-23 08:12:00,
2013-04-23 01:17:00,55.6,52.4,29.94,NNE,17,0.0,3.6,89,0.00,,,0.00,WUHU216WMR968SP,2013-04-23 08:17:00,
2013-04-23 01:25:00,55.4,51.7,29.94,ENE,65,2.2,4.0,87,0.00,,,0.00,WUHU216WMR968SP,2013-04-23 08:25:00,
2013-04-23 01:30:00,55.4,51.7,29.94,NNE,25,0.0,4.0,87,0.00,,,0.00,WUHU216WMR968SP,2013-04-23 08:30:00,
2013-04-23 01:35:00,55.6,51.4,29.94,NE,38,4.0,6.3,86,0.00,,,0.00,WUHU216WMR968SP,2013-04-23 08:35:00,
2013-04-23 01:40:00,55.4,51.2,29.94,ENE,60,2.7,6.3,86,0.00,,,0.00,WUHU216WMR968SP,2013-04-23 08:40:00,
2013-04-23 01:45:00,55.4,51.2,29.94,NE,35,0.0,4.0,86,0.00,,,0.00,WUHU216WMR968SP,2013-04-23 08:45:00,
2013-04-23 01:50:00,55.4,50.7,29.94,NE,42,2.7,4.0,84,0.00,,,0.00,WUHU216WMR968SP,2013-04-23 08:50:00,
2013-04-23 01:55:00,55.4,50.7,29.94,ENE,71,2.7,4.0,84,0.00,,,0.00,WUHU216WMR968SP,2013-04-23 08:55:00,
2013-04-23 02:00:00,55.4,50.7,29.94,East,79,0.0,4.0,84,0.00,,,0.00,WUHU216WMR968SP,2013-04-23 09:00:00,
2013-04-23 02:05:00,55.4,50.7,29.91,East,79,0.0,3.6,84,0.00,,,0.00,WUHU216WMR968SP,2013-04-23 09:05:00,
2013-04-23 02:10:00,55.6,50.9,29.91,ENE,69,3.1,5.4,84,0.00,,,0.00,WUHU216WMR968SP,2013-04-23 09:10:00,
2013-04-23 02:15:00,55.4,50.7,29.91,ENE,65,0.0,5.4,84,0.00,,,0.00,WUHU216WMR968SP,2013-04-23 09:15:00,
2013-04-23 02:20:00,55.6,50.9,29.91,NE,36,0.0,3.6,84,0.00,,,0.00,WUHU216WMR968SP,2013-04-23 09:20:00,
2013-04-23 02:25:00,55.6,50.3,29.91,ENE,68,0.0,3.1,82,0.00,,,0.00,WUHU216WMR968SP,2013-04-23 09:25:00,
2013-04-23 02:30:00,55.6,50.3,29.91,NE,53,0.0,0.0,82,0.00,,,0.00,WUHU216WMR968SP,2013-04-23 09:30:00,
2013-04-23 02:35:00,55.6,50.3,29.91,ENE,75,0.0,0.0,82,0.00,,,0.00,WUHU216WMR968SP,2013-04-23 09:35:00,
2013-04-23 02:41:00,55.6,50.3,29.91,East,82,0.0,2.7,82,0.00,,,0.00,WUHU216WMR968SP,2013-04-23 09:41:00,
2013-04-23 02:47:00,55.4,50.1,29.91,NNE,33,0.0,2.7,82,0.00,,,0.00,WUHU216WMR968SP,2013-04-23 09:47:00,
2013-04-23 02:52:00,55.6,50.3,29.91,NE,50,0.0,0.0,82,0.00,,,0.00,WUHU216WMR968SP,2013-04-23 09:52:00,
2013-04-23 02:57:00,55.6,50.3,29.91,ESE,105,0.0,0.0,82,0.00,,,0.00,WUHU216WMR968SP,2013-04-23 09:57:00,
2013-04-23 03:02:00,55.6,50.3,29.91,SE,125,2.7,4.0,82,0.00,,,0.00,WUHU216WMR968SP,2013-04-23 10:02:00,
2013-04-23 03:07:00,55.6,49.8,29.91,SE,125,0.0,4.0,81,0.00,,,0.00,WUHU216WMR968SP,2013-04-23 10:07:00,
2013-04-23 03:12:00,55.6,49.8,29.91,SE,126,0.0,3.6,81,0.00,,,0.00,WUHU216WMR968SP,2013-04-23 10:12:00,
2013-04-23 03:17:00,55.6,49.8,29.91,SE,126,0.0,0.0,81,0.00,,,0.00,WUHU216WMR968SP,2013-04-23 10:17:00,
2013-04-23 03:22:00,55.8,50.0,29.91,SE,126,0.0,0.0,81,0.00,,,0.00,WUHU216WMR968SP,2013-04-23 10:22:00,
2013-04-23 03:27:00,55.8,50.0,29.91,SE,126,0.0,0.0,81,0.00,,,0.00,WUHU216WMR968SP,2013-04-23 10:27:00,
2013-04-23 03:32:00,55.8,50.0,29.91,SE,126,0.0,0.0,81,0.00,,,0.00,WUHU216WMR968SP,2013-04-23 10:32:00,
2013-04-23 03:37:00,55.9,50.1,29.91,South,170,0.0,0.0,81,0.00,,,0.00,WUHU216WMR968SP,2013-04-23 10:37:00,
2013-04-23 03:42:00,55.9,50.1,29.91,South,170,0.0,0.0,81,0.00,,,0.00,WUHU216WMR968SP,2013-04-23 10:42:00,
2013-04-23 03:47:00,55.9,50.1,29.91,South,170,0.0,0.0,81,0.00,,,0.00,WUHU216WMR968SP,2013-04-23 10:47:00,
2013-04-23 03:52:00,56.1,49.7,29.91,South,170,0.0,0.0,79,0.00,,,0.00,WUHU216WMR968SP,2013-04-23 10:52:00,
2013-04-23 03:57:00,56.3,49.9,29.91,South,170,0.0,0.0,79,0.00,,,0.00,WUHU216WMR968SP,2013-04-23 10:57:00,
2013-04-23 04:02:00,56.3,49.9,29.91,South,170,0.0,0.0,79,0.00,,,0.00,WUHU216WMR968SP,2013-04-23 11:02:00,
2013-04-23 04:07:00,56.5,50.1,29.91,WSW,240,0.0,0.0,79,0.00,,,0.00,WUHU216WMR968SP,2013-04-23 11:07:00,
2013-04-23 04:12:00,56.5,50.1,29.91,WSW,240,0.0,0.0,79,0.00,,,0.00,WUHU216WMR968SP,2013-04-23 11:12:00,
2013-04-23 04:17:00,56.5,50.1,29.91,NW,306,0.0,0.0,79,0.00,,,0.00,WUHU216WMR968SP,2013-04-23 11:17:00,
2013-04-23 04:22:00,56.5,50.1,29.91,NW,306,0.0,0.0,79,0.00,,,0.00,WUHU216WMR968SP,2013-04-23 11:22:00,
2013-04-23 04:27:00,56.5,50.1,29.91,NW,306,0.0,0.0,79,0.00,,,0.00,WUHU216WMR968SP,2013-04-23 11:27:00,
2013-04-23 04:32:00,56.5,50.1,29.91,NW,306,0.0,0.0,79,0.00,,,0.00,WUHU216WMR968SP,2013-04-23 11:32:00,
2013-04-23 04:37:00,56.5,50.1,29.91,NW,306,0.0,0.0,79,0.00,,,0.00,WUHU216WMR968SP,2013-04-23 11:37:00,
2013-04-23 04:42:00,56.5,50.1,29.91,NE,48,0.0,3.1,79,0.00,,,0.00,WUHU216WMR968SP,2013-04-23 11:42:00,
2013-04-23 04:47:00,56.7,49.7,29.91,NNE,16,0.0,4.5,77,0.00,,,0.00,WUHU216WMR968SP,2013-04-23 11:47:00,
2013-04-23 04:52:00,56.7,49.7,29.91,NNW,327,0.0,4.5,77,0.00,,,0.00,WUHU216WMR968SP,2013-04-23 11:52:00,
2013-04-23 04:57:00,56.7,49.7,29.91,NNW,327,0.0,4.0,77,0.00,,,0.00,WUHU216WMR968SP,2013-04-23 11:57:00,
2013-04-23 05:02:00,56.7,49.7,29.91,NNW,327,0.0,3.1,77,0.00,,,0.00,WUHU216WMR968SP,2013-04-23 12:02:00,
2013-04-23 05:07:00,56.7,49.7,29.91,ENE,72,0.0,0.0,77,0.00,,,0.00,WUHU216WMR968SP,2013-04-23 12:07:00,
2013-04-23 05:12:00,56.7,49.7,29.91,NNE,20,2.2,3.6,77,0.00,,,0.00,WUHU216WMR968SP,2013-04-23 12:12:00,
2013-04-23 05:18:00,56.8,49.8,29.91,NE,48,2.2,3.6,77,0.00,,,0.00,WUHU216WMR968SP,2013-04-23 12:18:00,
2013-04-23 05:23:00,56.8,49.8,29.91,ENE,61,0.0,4.0,77,0.00,,,0.00,WUHU216WMR968SP,2013-04-23 12:23:00,
2013-04-23 05:28:00,56.7,49.7,29.91,ENE,69,0.0,3.6,77,0.00,,,0.00,WUHU216WMR968SP,2013-04-23 12:28:00,
2013-04-23 05:33:00,56.7,49.7,29.91,NE,51,0.0,3.6,77,0.00,,,0.00,WUHU216WMR968SP,2013-04-23 12:33:00,
2013-04-23 05:38:00,56.8,49.8,29.91,NNE,26,2.2,3.6,77,0.00,,,0.00,WUHU216WMR968SP,2013-04-23 12:38:00,
2013-04-23 05:43:00,56.7,49.7,29.91,NE,38,0.0,3.6,77,0.00,,,0.00,WUHU216WMR968SP,2013-04-23 12:43:00,
2013-04-23 05:48:00,56.7,49.7,29.88,ENE,72,0.0,3.6,77,0.00,,,0.00,WUHU216WMR968SP,2013-04-23 12:48:00,
2013-04-23 05:53:00,56.7,49.7,29.88,NE,52,0.0,3.6,77,0.00,,,0.00,WUHU216WMR968SP,2013-04-23 12:53:00,
2013-04-23 05:58:00,56.7,49.7,29.88,SE,133,0.0,3.1,77,0.00,,,0.00,WUHU216WMR968SP,2013-04-23 12:58:00,
2013-04-23 06:03:00,56.7,49.2,29.91,ENE,74,0.0,5.4,76,0.00,,,0.00,WUHU216WMR968SP,2013-04-23 13:03:00,
2013-04-23 06:08:00,56.7,49.2,29.91,ESE,120,0.0,5.4,76,0.00,,,0.00,WUHU216WMR968SP,2013-04-23 13:08:00,
2013-04-23 06:14:00,56.7,49.2,29.91,East,82,2.2,4.9,76,0.00,,,0.00,WUHU216WMR968SP,2013-04-23 13:14:00,
2013-04-23 06:19:00,56.5,49.0,29.91,ESE,120,0.0,4.9,76,0.00,,,0.00,WUHU216WMR968SP,2013-04-23 13:19:00,
2013-04-23 06:24:00,56.5,49.0,29.91,ESE,112,2.7,4.9,76,0.00,,,0.00,WUHU216WMR968SP,2013-04-23 13:24:00,
2013-04-23 06:29:00,56.5,49.0,29.91,East,92,2.7,4.9,76,0.00,,,0.00,WUHU216WMR968SP,2013-04-23 13:29:00,
2013-04-23 06:34:00,56.3,48.8,29.91,SE,131,2.2,4.9,76,0.00,,,0.00,WUHU216WMR968SP,2013-04-23 13:34:00,
2013-04-23 06:39:00,56.3,48.8,29.91,SE,135,0.0,4.9,76,0.00,,,0.00,WUHU216WMR968SP,2013-04-23 13:39:00,
2013-04-23 06:44:00,56.3,48.8,29.91,ESE,111,2.2,4.0,76,0.00,,,0.00,WUHU216WMR968SP,2013-04-23 13:44:00,
2013-04-23 06:49:00,56.3,48.8,29.94,ENE,75,2.7,3.6,76,0.00,,,0.00,WUHU216WMR968SP,2013-04-23 13:49:00,
2013-04-23 06:54:00,56.5,49.0,29.94,SSE,157,3.1,4.0,76,0.00,,,0.00,WUHU216WMR968SP,2013-04-23 13:54:00,
2013-04-23 06:59:00,56.5,49.0,29.94,ESE,116,4.0,5.8,76,0.00,,,0.00,WUHU216WMR968SP,2013-04-23 13:59:00,
2013-04-23 07:04:00,56.5,49.0,29.91,SSW,204,3.6,5.8,76,0.00,,,0.00,WUHU216WMR968SP,2013-04-23 14:04:00,
2013-04-23 07:09:00,56.5,49.0,29.91,East,99,3.1,6.3,76,0.00,,,0.00,WUHU216WMR968SP,2013-04-23 14:09:00,
2013-04-23 07:14:00,56.5,48.4,29.91,ESE,111,3.6,6.3,74,0.00,,,0.00,WUHU216WMR968SP,2013-04-23 14:14:00,
2013-04-23 07:19:00,56.5,48.4,29.94,SE,126,3.6,5.4,74,0.00,,,0.00,WUHU216WMR968SP,2013-04-23 14:19:00,
2013-04-23 07:24:00,56.7,48.6,29.94,SE,135,0.0,4.9,74,0.00,,,0.00,WUHU216WMR968SP,2013-04-23 14:24:00,
2013-04-23 07:29:00,56.7,48.6,29.94,SE,142,3.6,5.8,74,0.00,,,0.00,WUHU216WMR968SP,2013-04-23 14:29:00,
2013-04-23 07:34:00,56.7,48.0,29.94,SSE,159,2.7,5.8,72,0.00,,,0.00,WUHU216WMR968SP,2013-04-23 14:34:00,
2013-04-23 07:39:00,56.8,48.1,29.94,ESE,115,3.1,5.4,72,0.00,,,0.00,WUHU216WMR968SP,2013-04-23 14:39:00,
2013-04-23 07:44:00,56.8,48.1,29.94,SE,134,2.2,4.9,72,0.00,,,0.00,WUHU216WMR968SP,2013-04-23 14:44:00,
2013-04-23 07:49:00,57.0,48.3,29.94,SE,127,4.0,5.4,72,0.00,,,0.00,WUHU216WMR968SP,2013-04-23 14:49:00,
2013-04-23 07:54:00,57.2,48.5,29.94,South,179,0.0,5.4,72,0.00,,,0.00,WUHU216WMR968SP,2013-04-23 14:54:00,
2013-04-23 07:59:00,57.4,48.0,29.94,SSW,204,0.0,4.9,71,0.00,,,0.00,WUHU216WMR968SP,2013-04-23 14:59:00,
2013-04-23 08:04:00,57.6,48.2,29.94,South,175,0.0,5.4,71,0.00,,,0.00,WUHU216WMR968SP,2013-04-23 15:04:00,
2013-04-23 08:09:00,57.6,47.6,29.94,South,176,0.0,5.4,69,0.00,,,0.00,WUHU216WMR968SP,2013-04-23 15:09:00,
2013-04-23 08:14:00,57.9,47.9,29.94,SE,140,0.0,0.0,69,0.00,,,0.00,WUHU216WMR968SP,2013-04-23 15:14:00,
2013-04-23 08:19:00,58.1,48.1,29.94,North,353,0.0,0.0,69,0.00,,,0.00,WUHU216WMR968SP,2013-04-23 15:19:00,
2013-04-23 08:24:00,58.1,48.1,29.94,ESE,102,0.0,3.6,69,0.00,,,0.00,WUHU216WMR968SP,2013-04-23 15:24:00,
2013-04-23 08:29:00,58.3,47.6,29.94,ESE,108,0.0,3.6,67,0.00,,,0.00,WUHU216WMR968SP,2013-04-23 15:29:00,
2013-04-23 08:34:00,58.6,47.9,29.94,East,85,0.0,0.0,67,0.00,,,0.00,WUHU216WMR968SP,2013-04-23 15:34:00,
2013-04-23 08:39:00,58.8,48.1,29.94,ESE,108,0.0,0.0,67,0.00,,,0.00,WUHU216WMR968SP,2013-04-23 15:39:00,
2013-04-23 08:44:00,58.8,47.4,29.94,SSE,158,2.2,4.0,66,0.00,,,0.00,WUHU216WMR968SP,2013-04-23 15:44:00,
2013-04-23 08:49:00,59.4,48.0,29.94,SE,141,2.7,4.0,66,0.00,,,0.00,WUHU216WMR968SP,2013-04-23 15:49:00,
2013-04-23 08:54:00,59.7,47.6,29.94,East,87,0.0,4.0,64,0.00,,,0.00,WUHU216WMR968SP,2013-04-23 15:54:00,
2013-04-23 08:59:00,60.1,48.0,29.94,SE,145,0.0,3.6,64,0.00,,,0.00,WUHU216WMR968SP,2013-04-23 15:59:00,
2013-04-23 09:04:00,60.4,47.5,29.94,North,4,0.0,4.0,62,0.00,,,0.00,WUHU216WMR968SP,2013-04-23 16:04:00,
2013-04-23 09:09:00,60.6,47.7,29.94,South,182,0.0,4.0,62,0.00,,,0.00,WUHU216WMR968SP,2013-04-23 16:09:00,
2013-04-23 09:14:00,61.0,47.4,29.94,North,4,2.2,5.4,61,0.00,,,0.00,WUHU216WMR968SP,2013-04-23 16:14:00,
2013-04-23 09:19:00,61.5,47.1,29.94,North,8,2.2,5.4,59,0.00,,,0.00,WUHU216WMR968SP,2013-04-23 16:19:00,
2013-04-23 09:24:00,61.9,47.5,29.94,SSE,159,2.2,5.4,59,0.00,,,0.00,WUHU216WMR968SP,2013-04-23 16:24:00,
2013-04-23 09:29:00,62.2,47.7,29.94,NW,316,0.0,3.6,59,0.00,,,0.00,WUHU216WMR968SP,2013-04-23 16:29:00,
2013-04-23 09:34:00,62.8,47.5,29.94,East,88,2.2,4.0,57,0.00,,,0.00,WUHU216WMR968SP,2013-04-23 16:34:00,
2013-04-23 09:39:00,63.7,47.5,29.94,NNE,18,2.7,4.5,55,0.00,,,0.00,WUHU216WMR968SP,2013-04-23 16:39:00,
2013-04-23 09:44:00,64.4,48.2,29.94,West,263,0.0,4.5,55,0.00,,,0.00,WUHU216WMR968SP,2013-04-23 16:44:00,
2013-04-23 09:49:00,65.3,46.4,29.94,North,6,2.7,5.4,50,0.00,,,0.00,WUHU216WMR968SP,2013-04-23 16:49:00,
2013-04-23 09:54:00,65.5,45.7,29.94,East,91,3.6,5.4,49,0.00,,,0.00,WUHU216WMR968SP,2013-04-23 16:54:00,
2013-04-23 09:59:00,66.0,47.1,29.94,SE,134,3.1,4.5,50,0.00,,,0.00,WUHU216WMR968SP,2013-04-23 16:59:00,
2013-04-23 10:04:00,67.1,46.2,29.94,SSE,155,0.0,4.5,47,0.00,,,0.00,WUHU216WMR968SP,2013-04-23 17:04:00,
2013-04-23 10:09:00,67.6,45.7,29.94,NE,49,0.0,4.0,45,0.00,,,0.00,WUHU216WMR968SP,2013-04-23 17:09:00,
2013-04-23 10:14:00,68.5,45.5,29.94,NW,311,2.7,3.6,44,0.00,,,0.00,WUHU216WMR968SP,2013-04-23 17:14:00,
2013-04-23 10:19:00,68.9,44.8,29.94,North,2,2.7,4.9,42,0.00,,,0.00,WUHU216WMR968SP,2013-04-23 17:19:00,
2013-04-23 10:24:00,68.9,44.8,29.94,NNE,25,3.1,4.9,42,0.00,,,0.00,WUHU216WMR968SP,2013-04-23 17:24:00,
2013-04-23 10:29:00,68.7,44.6,29.94,North,2,3.1,6.3,42,0.00,,,0.00,WUHU216WMR968SP,2013-04-23 17:29:00,
2013-04-23 10:34:00,68.2,44.1,29.94,NNW,336,2.2,6.3,42,0.00,,,0.00,WUHU216WMR968SP,2013-04-23 17:34:00,
2013-04-23 10:39:00,68.4,44.3,29.94,East,83,4.0,5.8,42,0.00,,,0.00,WUHU216WMR968SP,2013-04-23 17:39:00,
2013-04-23 10:44:00,68.4,44.3,29.94,North,0,3.6,4.9,42,0.00,,,0.00,WUHU216WMR968SP,2013-04-23 17:44:00,
2013-04-23 10:49:00,68.9,44.8,29.97,NNW,333,2.2,4.9,42,0.00,,,0.00,WUHU216WMR968SP,2013-04-23 17:49:00,
2013-04-23 10:54:00,69.3,44.0,29.97,North,357,3.6,8.3,40,0.00,,,0.00,WUHU216WMR968SP,2013-04-23 17:54:00,
2013-04-23 10:59:00,69.4,44.1,29.97,NNW,342,0.0,8.3,40,0.00,,,0.00,WUHU216WMR968SP,2013-04-23 17:59:00,
2013-04-23 11:04:00,69.6,43.2,29.94,NNW,337,4.9,8.7,39,0.00,,,0.00,WUHU216WMR968SP,2013-04-23 18:04:00,
2013-04-23 11:09:00,69.6,43.2,29.94,NE,53,2.7,8.7,39,0.00,,,0.00,WUHU216WMR968SP,2013-04-23 18:09:00,
2013-04-23 11:14:00,69.6,44.3,29.94,WNW,288,3.1,7.2,40,0.00,,,0.00,WUHU216WMR968SP,2013-04-23 18:14:00,
2013-04-23 11:19:00,70.7,44.1,29.94,ENE,59,0.0,4.5,39,0.00,,,0.00,WUHU216WMR968SP,2013-04-23 18:19:00,
2013-04-23 11:24:00,71.4,44.8,29.94,NW,320,2.2,5.8,39,0.00,,,0.00,WUHU216WMR968SP,2013-04-23 18:24:00,
2013-04-23 11:29:00,71.4,44.8,29.94,NE,49,3.6,5.8,39,0.00,,,0.00,WUHU216WMR968SP,2013-04-23 18:29:00,
2013-04-23 11:34:00,71.1,44.5,29.94,NNW,338,0.0,6.3,39,0.00,,,0.00,WUHU216WMR968SP,2013-04-23 18:34:00,
2013-04-23 11:39:00,71.2,44.6,29.94,NNE,24,0.0,6.3,39,0.00,,,0.00,WUHU216WMR968SP,2013-04-23 18:39:00,
2013-04-23 11:44:00,71.2,44.6,29.94,ENE,78,2.2,6.3,39,0.00,,,0.00,WUHU216WMR968SP,2013-04-23 18:44:00,
2013-04-23 11:49:00,72.3,44.4,29.94,East,95,2.7,6.3,37,0.00,,,0.00,WUHU216WMR968SP,2013-04-23 18:49:00,
2013-04-23 11:54:00,72.9,44.9,29.94,NNW,337,2.7,4.9,37,0.00,,,0.00,WUHU216WMR968SP,2013-04-23 18:54:00,
2013-04-23 11:59:00,73.0,45.0,29.94,NNW,331,3.1,8.1,37,0.00,,,0.00,WUHU216WMR968SP,2013-04-23 18:59:00,
2013-04-23 12:04:00,72.9,44.9,29.94,West,267,2.7,8.1,37,0.00,,,0.00,WUHU216WMR968SP,2013-04-23 19:04:00,
2013-04-23 12:09:00,73.6,44.3,29.94,NNW,327,0.0,6.3,35,0.00,,,0.00,WUHU216WMR968SP,2013-04-23 19:09:00,
2013-04-23 12:14:00,73.9,44.6,29.94,NNW,341,4.0,7.6,35,0.00,,,0.00,WUHU216WMR968SP,2013-04-23 19:14:00,
2013-04-23 12:19:00,74.3,44.9,29.94,East,79,4.0,7.6,35,0.00,,,0.00,WUHU216WMR968SP,2013-04-23 19:19:00,
2013-04-23 12:24:00,74.8,45.4,29.94,South,177,3.1,7.6,35,0.00,,,0.00,WUHU216WMR968SP,2013-04-23 19:24:00,
2013-04-23 12:29:00,75.2,44.4,29.94,East,82,2.7,5.8,34,0.00,,,0.00,WUHU216WMR968SP,2013-04-23 19:29:00,
2013-04-23 12:34:00,75.2,44.4,29.94,North,357,3.6,5.8,34,0.00,,,0.00,WUHU216WMR968SP,2013-04-23 19:34:00,
2013-04-23 12:39:00,74.8,45.4,29.94,NNW,329,4.5,5.8,35,0.00,,,0.00,WUHU216WMR968SP,2013-04-23 19:39:00,
2013-04-23 12:44:00,75.0,45.5,29.94,SSE,148,3.6,5.8,35,0.00,,,0.00,WUHU216WMR968SP,2013-04-23 19:44:00,
2013-04-23 12:49:00,75.7,44.9,29.94,ENE,66,3.1,6.3,34,0.00,,,0.00,WUHU216WMR968SP,2013-04-23 19:49:00,
2013-04-23 12:54:00,75.9,45.0,29.94,West,278,3.6,6.3,34,0.00,,,0.00,WUHU216WMR968SP,2013-04-23 19:54:00,
2013-04-23 12:59:00,76.3,45.4,29.94,NNW,339,2.2,5.8,34,0.00,,,0.00,WUHU216WMR968SP,2013-04-23 19:59:00,
2013-04-23 13:04:00,75.9,45.0,29.91,ENE,61,3.6,5.4,34,0.00,,,0.00,WUHU216WMR968SP,2013-04-23 20:04:00,
2013-04-23 13:09:00,75.0,45.5,29.91,NW,312,3.6,6.3,35,0.00,,,0.00,WUHU216WMR968SP,2013-04-23 20:09:00,
2013-04-23 13:14:00,75.9,45.0,29.91,NE,43,3.1,6.3,34,0.00,,,0.00,WUHU216WMR968SP,2013-04-23 20:14:00,
2013-04-23 13:19:00,76.1,45.2,29.91,East,93,4.0,7.6,34,0.00,,,0.00,WUHU216WMR968SP,2013-04-23 20:19:00,
2013-04-23 13:25:00,76.3,45.4,29.91,NE,41,4.5,7.6,34,0.00,,,0.00,WUHU216WMR968SP,2013-04-23 20:25:00,
2013-04-23 13:30:00,76.6,45.7,29.91,WSW,250,0.0,6.3,34,0.00,,,0.00,WUHU216WMR968SP,2013-04-23 20:30:00,
2013-04-23 13:34:00,77.5,46.4,29.91,NE,56,3.6,8.3,34,0.00,,,0.00,WUHU216WMR968SP,2013-04-23 20:34:00,
2013-04-23 13:39:00,77.7,43.8,29.91,NNW,332,4.0,8.3,30,0.00,,,0.00,WUHU216WMR968SP,2013-04-23 20:39:00,
2013-04-23 13:45:00,77.9,46.8,29.91,ENE,77,4.9,8.7,34,0.00,,,0.00,WUHU216WMR968SP,2013-04-23 20:45:00,
2013-04-23 13:50:00,77.5,43.7,29.91,ENE,59,3.6,8.7,30,0.00,,,0.00,WUHU216WMR968SP,2013-04-23 20:50:00,
2013-04-23 13:55:00,77.2,46.2,29.91,NNE,25,2.2,6.3,34,0.00,,,0.00,WUHU216WMR968SP,2013-04-23 20:55:00,
2013-04-23 14:00:00,77.5,43.7,29.91,SSE,168,2.2,6.3,30,0.00,,,0.00,WUHU216WMR968SP,2013-04-23 21:00:00,
2013-04-23 14:05:00,78.3,44.4,29.91,NW,308,0.0,6.3,30,0.00,,,0.00,WUHU216WMR968SP,2013-04-23 21:05:00,
2013-04-23 14:10:00,78.3,44.4,29.91,ENE,59,2.7,8.1,30,0.00,,,0.00,WUHU216WMR968SP,2013-04-23 21:10:00,
2013-04-23 14:15:00,78.3,44.4,29.91,NE,50,3.6,8.1,30,0.00,,,0.00,WUHU216WMR968SP,2013-04-23 21:15:00,
2013-04-23 14:20:00,78.4,44.5,29.91,NNE,13,4.0,7.2,30,0.00,,,0.00,WUHU216WMR968SP,2013-04-23 21:20:00,
2013-04-23 14:25:00,77.9,44.0,29.91,NNE,32,4.5,6.3,30,0.00,,,0.00,WUHU216WMR968SP,2013-04-23 21:25:00,
2013-04-23 14:30:00,77.9,44.0,29.91,North,0,4.9,6.3,30,0.00,,,0.00,WUHU216WMR968SP,2013-04-23 21:30:00,
2013-04-23 14:35:00,77.9,44.0,29.91,NNW,327,3.1,8.7,30,0.00,,,0.00,WUHU216WMR968SP,2013-04-23 21:35:00,
2013-04-23 14:40:00,78.4,44.5,29.91,ENE,64,0.0,8.7,30,0.00,,,0.00,WUHU216WMR968SP,2013-04-23 21:40:00,
2013-04-23 14:45:00,78.6,44.6,29.91,NNW,335,4.5,8.7,30,0.00,,,0.00,WUHU216WMR968SP,2013-04-23 21:45:00,
2013-04-23 14:50:00,78.4,44.5,29.88,NE,42,3.6,8.7,30,0.00,,,0.00,WUHU216WMR968SP,2013-04-23 21:50:00,
2013-04-23 14:55:00,78.4,44.5,29.88,NNE,32,3.6,6.3,30,0.00,,,0.00,WUHU216WMR968SP,2013-04-23 21:55:00,
2013-04-23 15:00:00,78.3,44.4,29.88,ENE,71,2.7,6.7,30,0.00,,,0.00,WUHU216WMR968SP,2013-04-23 22:00:00,
2013-04-23 15:05:00,78.6,44.6,29.88,NE,50,3.1,6.7,30,0.00,,,0.00,WUHU216WMR968SP,2013-04-23 22:05:00,
2013-04-23 15:10:00,79.2,43.7,29.88,NNW,338,2.7,5.4,29,0.00,,,0.00,WUHU216WMR968SP,2013-04-23 22:10:00,
2013-04-23 15:15:00,79.3,43.7,29.88,North,5,3.1,8.3,29,0.00,,,0.00,WUHU216WMR968SP,2013-04-23 22:15:00,
2013-04-23 15:20:00,79.5,43.9,29.88,WNW,286,2.2,8.3,29,0.00,,,0.00,WUHU216WMR968SP,2013-04-23 22:20:00,
2013-04-23 15:25:00,80.2,44.5,29.88,NE,51,0.0,5.8,29,0.00,,,0.00,WUHU216WMR968SP,2013-04-23 22:25:00,
2013-04-23 15:30:00,80.4,44.7,29.88,NE,51,0.0,4.9,29,0.00,,,0.00,WUHU216WMR968SP,2013-04-23 22:30:00,
2013-04-23 15:34:00,80.8,45.0,29.88,WNW,301,3.6,4.9,29,0.00,,,0.00,WUHU216WMR968SP,2013-04-23 22:34:00,
2013-04-23 15:39:00,81.0,45.2,29.88,WNW,285,0.0,4.5,29,0.00,,,0.00,WUHU216WMR968SP,2013-04-23 22:39:00,
2013-04-23 15:44:00,81.3,45.5,29.88,WNW,295,3.6,5.8,29,0.00,,,0.00,WUHU216WMR968SP,2013-04-23 22:44:00,
2013-04-23 15:49:00,81.1,45.3,29.88,NW,325,3.6,5.8,29,0.00,,,0.00,WUHU216WMR968SP,2013-04-23 22:49:00,
2013-04-23 15:54:00,81.3,45.5,29.88,WNW,296,0.0,5.8,29,0.00,,,0.00,WUHU216WMR968SP,2013-04-23 22:54:00,
2013-04-23 15:59:00,82.0,46.1,29.88,SW,225,2.7,4.9,29,0.00,,,0.00,WUHU216WMR968SP,2013-04-23 22:59:00,
2013-04-23 16:04:00,82.9,45.3,29.88,SSE,153,2.2,4.9,27,0.00,,,0.00,WUHU216WMR968SP,2013-04-23 23:04:00,
2013-04-23 16:09:00,83.5,45.8,29.88,North,0,0.0,4.0,27,0.00,,,0.00,WUHU216WMR968SP,2013-04-23 23:09:00,
2013-04-23 16:14:00,83.5,45.8,29.88,ESE,109,0.0,6.3,27,0.00,,,0.00,WUHU216WMR968SP,2013-04-23 23:14:00,
2013-04-23 16:19:00,83.3,45.6,29.88,WNW,296,2.2,6.3,27,0.00,,,0.00,WUHU216WMR968SP,2013-04-23 23:19:00,
2013-04-23 16:24:00,83.3,45.6,29.88,West,275,0.0,4.5,27,0.00,,,0.00,WUHU216WMR968SP,2013-04-23 23:24:00,
2013-04-23 16:29:00,83.8,46.0,29.88,NW,311,0.0,4.5,27,0.00,,,0.00,WUHU216WMR968SP,2013-04-23 23:29:00,
2013-04-23 16:34:00,83.7,45.9,29.85,WNW,292,2.2,4.9,27,0.00,,,0.00,WUHU216WMR968SP,2013-04-23 23:34:00,
2013-04-23 16:39:00,82.9,45.3,29.85,NNW,348,3.6,5.4,27,0.00,,,0.00,WUHU216WMR968SP,2013-04-23 23:39:00,
2013-04-23 16:44:00,82.4,44.8,29.85,WNW,291,3.1,5.4,27,0.00,,,0.00,WUHU216WMR968SP,2013-04-23 23:44:00,
2013-04-23 16:49:00,82.2,46.2,29.85,WNW,303,2.2,4.0,29,0.00,,,0.00,WUHU216WMR968SP,2013-04-23 23:49:00,
2013-04-23 16:54:00,82.0,46.1,29.85,NW,314,4.0,4.9,29,0.00,,,0.00,WUHU216WMR968SP,2013-04-23 23:54:00,
2013-04-23 16:59:00,81.9,46.0,29.85,NE,43,3.6,6.3,29,0.00,,,0.00,WUHU216WMR968SP,2013-04-23 23:59:00,
2013-04-23 17:04:00,81.3,45.5,29.85,East,81,3.1,6.3,29,0.00,,,0.00,WUHU216WMR968SP,2013-04-24 00:04:00,
2013-04-23 17:09:00,81.1,45.3,29.85,North,3,5.4,7.6,29,0.00,,,0.00,WUHU216WMR968SP,2013-04-24 00:09:00,
2013-04-23 17:14:00,80.8,45.0,29.85,NE,48,4.5,7.6,29,0.00,,,0.00,WUHU216WMR968SP,2013-04-24 00:14:00,
2013-04-23 17:19:00,80.6,44.9,29.85,ENE,68,4.5,6.7,29,0.00,,,0.00,WUHU216WMR968SP,2013-04-24 00:19:00,
2013-04-23 17:24:00,79.9,44.3,29.85,NE,34,4.5,6.7,29,0.00,,,0.00,WUHU216WMR968SP,2013-04-24 00:24:00,
2013-04-23 17:29:00,79.7,44.1,29.85,North,353,3.6,6.3,29,0.00,,,0.00,WUHU216WMR968SP,2013-04-24 00:29:00,
2013-04-23 17:34:00,79.9,44.3,29.85,NNW,334,2.2,5.8,29,0.00,,,0.00,WUHU216WMR968SP,2013-04-24 00:34:00,
2013-04-23 17:39:00,80.1,44.4,29.85,ENE,63,3.6,5.8,29,0.00,,,0.00,WUHU216WMR968SP,2013-04-24 00:39:00,
2013-04-23 17:44:00,79.7,44.1,29.85,North,6,3.1,5.8,29,0.00,,,0.00,WUHU216WMR968SP,2013-04-24 00:44:00,
2013-04-23 17:49:00,79.3,43.7,29.85,NNE,16,2.7,6.3,29,0.00,,,0.00,WUHU216WMR968SP,2013-04-24 00:49:00,
2013-04-23 17:54:00,79.0,43.5,29.85,North,353,3.1,6.3,29,0.00,,,0.00,WUHU216WMR968SP,2013-04-24 00:54:00,
2013-04-23 17:59:00,78.6,44.6,29.85,NE,50,2.7,5.4,30,0.00,,,0.00,WUHU216WMR968SP,2013-04-24 00:59:00,
2013-04-23 18:04:00,78.1,44.2,29.85,NE,53,0.0,4.0,30,0.00,,,0.00,WUHU216WMR968SP,2013-04-24 01:04:00,
2013-04-23 18:09:00,77.9,44.0,29.85,East,95,0.0,2.7,30,0.00,,,0.00,WUHU216WMR968SP,2013-04-24 01:09:00,
2013-04-23 18:14:00,78.1,44.2,29.85,West,267,0.0,2.7,30,0.00,,,0.00,WUHU216WMR968SP,2013-04-24 01:14:00,
2013-04-23 18:19:00,78.3,44.4,29.85,SW,227,3.1,5.8,30,0.00,,,0.00,WUHU216WMR968SP,2013-04-24 01:19:00,
2013-04-23 18:24:00,77.9,44.0,29.85,WSW,247,0.0,5.8,30,0.00,,,0.00,WUHU216WMR968SP,2013-04-24 01:24:00,
2013-04-23 18:29:00,77.5,43.7,29.85,SSW,194,2.2,4.9,30,0.00,,,0.00,WUHU216WMR968SP,2013-04-24 01:29:00,
2013-04-23 18:34:00,77.2,43.4,29.85,SSW,195,2.7,5.4,30,0.00,,,0.00,WUHU216WMR968SP,2013-04-24 01:34:00,
2013-04-23 18:39:00,76.6,42.9,29.85,SW,233,0.0,5.4,30,0.00,,,0.00,WUHU216WMR968SP,2013-04-24 01:39:00,
2013-04-23 18:44:00,76.3,42.6,29.85,WSW,255,0.0,4.9,30,0.00,,,0.00,WUHU216WMR968SP,2013-04-24 01:44:00,
2013-04-23 18:49:00,75.7,44.9,29.85,SW,228,0.0,4.9,34,0.00,,,0.00,WUHU216WMR968SP,2013-04-24 01:49:00,
2013-04-23 18:54:00,75.4,44.6,29.85,SSW,192,0.0,4.0,34,0.00,,,0.00,WUHU216WMR968SP,2013-04-24 01:54:00,
2013-04-23 18:59:00,74.8,45.4,29.85,South,188,0.0,4.0,35,0.00,,,0.00,WUHU216WMR968SP,2013-04-24 01:59:00,
2013-04-23 19:04:00,74.5,45.1,29.85,WSW,237,2.7,4.9,35,0.00,,,0.00,WUHU216WMR968SP,2013-04-24 02:04:00,
2013-04-23 19:09:00,73.9,44.6,29.85,SW,232,0.0,4.9,35,0.00,,,0.00,WUHU216WMR968SP,2013-04-24 02:09:00,
2013-04-23 19:14:00,73.6,44.3,29.85,SSE,154,0.0,5.8,35,0.00,,,0.00,WUHU216WMR968SP,2013-04-24 02:14:00,
2013-04-23 19:20:00,72.9,44.9,29.85,SSE,166,4.9,6.7,37,0.00,,,0.00,WUHU216WMR968SP,2013-04-24 02:20:00,
2013-04-23 19:25:00,72.1,44.2,29.85,ESE,123,5.8,9.2,37,0.00,,,0.00,WUHU216WMR968SP,2013-04-24 02:25:00,
2013-04-23 19:30:00,71.4,43.6,29.85,SSE,155,4.5,9.2,37,0.00,,,0.00,WUHU216WMR968SP,2013-04-24 02:30:00,
2013-04-23 19:35:00,70.9,43.1,29.88,South,176,2.7,6.3,37,0.00,,,0.00,WUHU216WMR968SP,2013-04-24 02:35:00,
2013-04-23 19:40:00,70.2,43.7,29.88,SSE,163,2.2,5.4,39,0.00,,,0.00,WUHU216WMR968SP,2013-04-24 02:40:00,
2013-04-23 19:45:00,69.6,43.2,29.88,SE,140,4.5,7.6,39,0.00,,,0.00,WUHU216WMR968SP,2013-04-24 02:45:00,
2013-04-23 19:50:00,69.1,42.7,29.88,South,180,2.7,7.6,39,0.00,,,0.00,WUHU216WMR968SP,2013-04-24 02:50:00,
2013-04-23 19:55:00,68.5,42.2,29.88,SE,141,0.0,8.1,39,0.00,,,0.00,WUHU216WMR968SP,2013-04-24 02:55:00,
2013-04-23 20:01:00,68.2,43.0,29.88,SSE,155,3.1,6.7,40,0.00,,,0.00,WUHU216WMR968SP,2013-04-24 03:01:00,
2013-04-23 20:06:00,68.0,42.9,29.88,SE,127,3.6,5.8,40,0.00,,,0.00,WUHU216WMR968SP,2013-04-24 03:06:00,
2013-04-23 20:11:00,67.6,43.6,29.88,SSE,168,4.9,6.3,42,0.00,,,0.00,WUHU216WMR968SP,2013-04-24 03:11:00,
2013-04-23 20:16:00,67.3,43.3,29.88,SSE,163,3.1,6.3,42,0.00,,,0.00,WUHU216WMR968SP,2013-04-24 03:16:00,
2013-04-23 20:21:00,66.9,44.0,29.88,SE,131,3.6,5.4,44,0.00,,,0.00,WUHU216WMR968SP,2013-04-24 03:21:00,
2013-04-23 20:27:00,66.6,43.7,29.88,SSE,164,5.4,7.2,44,0.00,,,0.00,WUHU216WMR968SP,2013-04-24 03:27:00,
2013-04-23 20:32:00,66.2,44.4,29.88,SE,126,3.6,7.2,45,0.00,,,0.00,WUHU216WMR968SP,2013-04-24 03:32:00,
2013-04-23 20:37:00,65.8,44.0,29.91,SE,134,4.0,5.8,45,0.00,,,0.00,WUHU216WMR968SP,2013-04-24 03:37:00,
2013-04-23 20:42:00,65.5,44.7,29.91,SE,140,2.7,5.4,47,0.00,,,0.00,WUHU216WMR968SP,2013-04-24 03:42:00,
2013-04-23 20:47:00,65.1,44.4,29.91,South,185,4.0,6.3,47,0.00,,,0.00,WUHU216WMR968SP,2013-04-24 03:47:00,
2013-04-23 20:52:00,64.8,45.0,29.91,South,185,2.2,6.3,49,0.00,,,0.00,WUHU216WMR968SP,2013-04-24 03:52:00,
2013-04-23 20:57:00,64.6,44.9,29.91,South,176,3.6,6.3,49,0.00,,,0.00,WUHU216WMR968SP,2013-04-24 03:57:00,
2013-04-23 21:01:00,64.4,45.6,29.91,SSE,168,2.7,5.4,50,0.00,,,0.00,WUHU216WMR968SP,2013-04-24 04:01:00,
2013-04-23 21:02:00,64.4,45.6,29.91,SE,146,2.7,5.4,50,0.00,,,0.00,WUHU216WMR968SP,2013-04-24 04:02:00,
2013-04-23 21:07:00,64.2,46.3,29.91,ESE,114,0.0,4.0,52,0.00,,,0.00,WUHU216WMR968SP,2013-04-24 04:07:00,
2013-04-23 21:12:00,63.7,46.7,29.91,SE,139,0.0,3.6,54,0.00,,,0.00,WUHU216WMR968SP,2013-04-24 04:12:00,
2013-04-23 21:17:00,63.3,47.2,29.91,SSE,149,2.2,3.1,55,0.00,,,0.00,WUHU216WMR968SP,2013-04-24 04:17:00,
2013-04-23 21:22:00,63.1,47.0,29.91,SE,124,0.0,3.1,55,0.00,,,0.00,WUHU216WMR968SP,2013-04-24 04:22:00,
2013-04-23 21:27:00,62.8,46.7,29.91,SE,138,0.0,3.6,55,0.00,,,0.00,WUHU216WMR968SP,2013-04-24 04:27:00,
2013-04-23 21:32:00,62.4,47.1,29.91,SE,138,0.0,3.6,57,0.00,,,0.00,WUHU216WMR968SP,2013-04-24 04:32:00,
2013-04-23 21:37:00,62.1,47.6,29.91,NNW,341,0.0,0.0,59,0.00,,,0.00,WUHU216WMR968SP,2013-04-24 04:37:00,
2013-04-23 21:42:00,61.7,47.3,29.91,NNE,27,0.0,0.0,59,0.00,,,0.00,WUHU216WMR968SP,2013-04-24 04:42:00,
2013-04-23 21:47:00,61.5,47.8,29.91,NNE,15,0.0,3.1,61,0.00,,,0.00,WUHU216WMR968SP,2013-04-24 04:47:00,
2013-04-23 21:52:00,61.2,47.6,29.91,NNW,331,0.0,3.1,61,0.00,,,0.00,WUHU216WMR968SP,2013-04-24 04:52:00,
2013-04-23 21:57:00,61.0,48.1,29.91,NW,314,0.0,3.1,62,0.00,,,0.00,WUHU216WMR968SP,2013-04-24 04:57:00,
2013-04-23 22:02:00,60.8,47.9,29.91,North,11,4.5,5.4,62,0.00,,,0.00,WUHU216WMR968SP,2013-04-24 05:02:00,
2013-04-23 22:07:00,60.6,48.4,29.94,NW,308,3.1,5.4,64,0.00,,,0.00,WUHU216WMR968SP,2013-04-24 05:07:00,
2013-04-23 22:12:00,60.4,48.9,29.94,North,0,2.7,4.9,66,0.00,,,0.00,WUHU216WMR968SP,2013-04-24 05:12:00,
2013-04-23 22:17:00,60.1,49.3,29.94,NE,46,2.7,5.4,67,0.00,,,0.00,WUHU216WMR968SP,2013-04-24 05:17:00,
2013-04-23 22:22:00,59.9,49.1,29.94,NNW,334,3.1,5.4,67,0.00,,,0.00,WUHU216WMR968SP,2013-04-24 05:22:00,
2013-04-23 22:27:00,59.5,49.4,29.94,North,7,0.0,4.9,69,0.00,,,0.00,WUHU216WMR968SP,2013-04-24 05:27:00,
2013-04-23 22:32:00,59.4,50.6,29.94,North,353,4.0,5.4,72,0.00,,,0.00,WUHU216WMR968SP,2013-04-24 05:32:00,
2013-04-23 22:37:00,59.2,51.0,29.94,ENE,58,2.7,5.4,74,0.00,,,0.00,WUHU216WMR968SP,2013-04-24 05:37:00,
2013-04-23 22:42:00,58.8,51.2,29.94,NNW,341,4.5,6.3,76,0.00,,,0.00,WUHU216WMR968SP,2013-04-24 05:42:00,
2013-04-23 22:47:00,58.6,51.6,29.94,NNW,335,3.1,6.3,77,0.00,,,0.00,WUHU216WMR968SP,2013-04-24 05:47:00,
2013-04-23 22:52:00,58.5,52.1,29.94,ENE,57,2.7,6.3,79,0.00,,,0.00,WUHU216WMR968SP,2013-04-24 05:52:00,
2013-04-23 22:57:00,58.1,51.7,29.94,NNE,25,3.6,5.8,79,0.00,,,0.00,WUHU216WMR968SP,2013-04-24 05:57:00,
2013-04-23 23:02:00,57.9,51.5,29.94,North,2,3.6,5.4,79,0.00,,,0.00,WUHU216WMR968SP,2013-04-24 06:02:00,
2013-04-23 23:07:00,57.7,51.8,29.94,NNE,22,2.2,5.4,81,0.00,,,0.00,WUHU216WMR968SP,2013-04-24 06:07:00,
2013-04-23 23:12:00,57.4,52.1,29.94,North,353,2.7,4.9,82,0.00,,,0.00,WUHU216WMR968SP,2013-04-24 06:12:00,
2013-04-23 23:17:00,57.2,51.9,29.94,North,357,2.2,4.9,82,0.00,,,0.00,WUHU216WMR968SP,2013-04-24 06:17:00,
2013-04-23 23:22:00,57.0,52.2,29.94,North,357,3.6,6.3,84,0.00,,,0.00,WUHU216WMR968SP,2013-04-24 06:22:00,
2013-04-23 23:27:00,56.8,52.0,29.94,North,6,2.7,6.3,84,0.00,,,0.00,WUHU216WMR968SP,2013-04-24 06:27:00,
2013-04-23 23:32:00,56.7,52.5,29.94,NNE,16,0.0,5.4,86,0.00,,,0.00,WUHU216WMR968SP,2013-04-24 06:32:00,
2013-04-23 23:37:00,56.5,52.3,29.94,NNW,345,3.1,5.8,86,0.00,,,0.00,WUHU216WMR968SP,2013-04-24 06:37:00,
2013-04-23 23:42:00,56.3,52.1,29.94,North,357,0.0,5.8,86,0.00,,,0.00,WUHU216WMR968SP,2013-04-24 06:42:00,
2013-04-23 23:47:00,56.3,52.6,29.94,North,357,0.0,4.0,87,0.00,,,0.00,WUHU216WMR968SP,2013-04-24 06:47:00,
2013-04-23 23:52:00,56.1,52.4,29.94,North,0,0.0,4.0,87,0.00,,,0.00,WUHU216WMR968SP,2013-04-24 06:52:00,
2013-04-23 23:57:00,55.9,52.2,29.94,North,357,0.0,2.7,87,0.00,,,0.00,WUHU216WMR968SP,2013-04-24 06:57:00,